This demonstration page uses our WeatherBlox Daily Observations layout. Learn more.

Left ArrowRight Arrow

40.68043, -122.37084

Hourly Observations for November 30, 2021

Temp ( °F °C ) Dew Point ( °F °C ) Humidity (%) Winds ( mph kmh ) Pressure ( in mb ) Visibility ( mi km ) Precip ( " mm )
12:53 am 00:53 Clear 45 7.2 41 5 86 86 N 3 6 30.12 1020 10 16 N/A
1:53 am 01:53 Clear 48 8.9 40 4.4 74 74 NW 5 7 30.12 1020 10 16 N/A
2:53 am 02:53 Clear 44 6.7 39 3.9 83 83 N N/A 30.11 1020 10 16 N/A
3:53 am 03:53 Clear 44 6.7 39 3.9 83 83 NNW 3 6 30.11 1020 10 16 N/A
4:53 am 04:53 Clear 43 6.1 38 3.3 82 82 N N/A 30.12 1020 10 16 N/A
5:53 am 05:53 Clear 42 5.6 38 3.3 85 85 N N/A 30.14 1021 10 16 N/A
6:53 am 06:53 Clear 40 4.4 37 2.8 89 89 E 3 6 30.15 1021 10 16 N/A
7:53 am 07:53 Sunny 41 5 38 3.3 89 89 SE 5 7 30.18 1022 10 16 N/A
8:53 am 08:53 Sunny 47 8.3 41 5 80 80 N N/A 30.19 1022 10 16 N/A
9:53 am 09:53 Sunny 51 10.6 45 7.2 80 80 N N/A 30.19 1022 10 16 N/A
10:53 am 10:53 Sunny 61 16.1 46 7.8 58 58 N N/A 30.17 1022 10 16 N/A
11:53 am 11:53 Sunny 69 20.6 49 9.4 49 49 WNW 3 6 30.13 1020 N/A N/A
12:53 pm 12:53 Sunny 76 24.4 39 3.9 26 26 NW 8 13 30.11 1020 N/A N/A
1:15 pm 13:15 Hazy 77 25 39 3.9 26 26 NNW 5 7 30.09 1019 2 2 N/A
1:22 pm 13:22 Sunny 78 25.6 39 3.9 25 25 VRB 3 6 30.09 1019 10 16 N/A
2:53 pm 14:53 Sunny 80 26.7 34 1.1 19 19 N 10 17 30.07 1018 10 16 N/A
3:53 pm 15:53 Sunny 79 26.1 33 0.6 19 19 N 9 15 30.07 1018 10 16 N/A
4:53 pm 16:53 Clear 75 23.9 31 -0.6 20 20 N 8 13 30.09 1019 10 16 N/A
5:53 pm 17:53 Clear 71 21.7 31 -0.6 23 23 N 8 13 30.11 1020 10 16 N/A
6:53 pm 18:53 Clear 72 22.2 28 -2.2 19 19 N 12 19 30.11 1020 10 16 N/A
7:53 pm 19:53 Clear 71 21.7 30 -1.1 22 22 N 13 20 30.13 1020 10 16 N/A
8:53 pm 20:53 Clear 71 21.7 31 -0.6 23 23 N 14 22 30.13 1020 10 16 N/A
9:53 pm 21:53 Clear 70 21.1 30 -1.1 23 23 N 12 19 30.14 1021 10 16 N/A
10:53 pm 22:53 Clear 70 21.1 30 -1.1 23 23 N 10 17 30.14 1021 10 16 N/A
11:53 pm 23:53 Clear 70 21.1 29 -1.7 22 22 N 8 13 30.14 1021 10 16 N/A

Powered by AerisWeather